FW7889 Weather Reports


time (UTC)temp
C
wind
direction
speed
KPH
gust
KPH
rain 1hr
cm
rain 24hr
cm
rain mn
cm
humidity
%
barometer
mb
20260502170125 3 22 8.0 9.7 0.00 0.15 0.15 82 1066.2
20260502164124 3 311 8.0 9.7 0.00 0.15 0.15 82 1066.2
20260502163123 3 289 3.2 4.8 0.00 0.15 0.15 83 1066.4
20260502162117 3 273 4.8 4.8 0.00 0.15 0.15 85 1066.5
20260502161117 2 312 3.2 3.2 0.00 0.15 0.15 85 1066.6
20260502160113 2 320 3.2 4.8 0.00 0.15 0.15 88 1066.6
20260502152103 2 276 6.4 8.0 0.00 0.15 0.15 92 1066.9
20260502151057 2 267 8.0 9.7 0.00 0.15 0.15 92 1066.7
20260502123028 2 264 1.6 1.6 0.00 0.15 0.15 99 1066.8
20260502122028 2 276 0.0 1.6 0.00 0.15 0.15 99 1066.8
20260502121028 2 265 1.6 1.6 0.00 0.15 0.15 99 1066.7
20260502115027 2 262 1.6 3.2 0.00 0.15 0.15 99 1066.7
20260502114026 2 270 3.2 3.2 0.00 0.15 0.15 99 1066.7
20260502113023 2 273 0.0 0.0 0.00 0.15 0.15 99 1066.7
20260502112023 2 269 3.2 3.2 0.00 0.15 0.15 99 1066.6
20260502111018 1 265 1.6 1.6 0.00 0.15 0.15 99 1066.6
20260502110013 1 271 0.0 0.0 0.00 0.15 0.15 99 1066.5
20260502105013 1 268 1.6 1.6 0.00 0.15 0.15 99 1066.5
20260502104008 1 268 1.6 1.6 0.00 0.15 0.15 99 1066.4
20260502103002 1 271 0.0 0.0 0.00 0.15 0.15 99 1066.2
20260502102002 1 272 0.0 0.0 0.00 0.15 0.15 99 1066.4
20260502100958 1 273 0.0 0.0 0.00 0.15 0.15 99 1066.0
20260502090934 1 278 0.0 0.0 0.00 0.15 0.15 99 1065.6
20260502070910 1 302 0.0 0.0 0.00 0.15 0.15 99 1065.4
20260502065906 1 284 0.0 0.0 0.00 0.15 0.15 99 1065.6
20260502064902 1 285 0.0 0.0 0.00 0.15 0.15 99 1065.3
20260502063856 1 290 1.6 1.6 0.00 0.15 0.15 99 1065.5
20260502062851 1 293 0.0 0.0 0.00 0.15 0.15 99 1065.6
20260502061847 1 299 0.0 0.0 0.18 0.15 0.15 99 1065.6
20260502060846 1 293 0.0 1.6 0.00 0.13 0.13 99 1065.6
20260502055845 1 285 0.0 0.0 0.00 0.13 0.13 99 1065.7
20260502054842 1 285 0.0 0.0 0.00 0.13 0.13 99 1065.5
20260502053837 1 275 0.0 0.0 0.00 0.13 0.13 99 1065.8
20260502052837 1 279 0.0 0.0 0.13 0.13 0.13 99 1065.9
20260502051832 1 279 0.0 0.0 0.00 0.10 0.10 99 1065.9
20260502050832 1 284 0.0 0.0 0.00 0.10 0.10 99 1065.6
20260502045832 1 285 0.0 0.0 0.18 0.10 0.10 99 1065.6
20260502044832 1 314 0.0 0.0 0.00 0.08 0.08 99 1065.9
20260502043831 2 283 0.0 0.0 0.13 0.08 0.08 99 1065.7
20260502042828 1 281 0.0 0.0 0.00 0.05 0.05 99 1065.9
20260502041823 1 273 0.0 0.0 0.18 0.05 0.05 99 1065.8
20260502040823 1 275 0.0 0.0 0.13 0.03 0.03 99 1065.8
20260502035822 1 272 0.0 0.0 0.18 0.46 0.46 99 1066.1
20260502034816 2 273 0.0 0.0 0.18 0.43 0.43 99 1066.0
20260502033812 2 272 1.6 1.6 0.30 0.38 0.38 99 1066.1
20260502032812 2 291 0.0 0.0 0.61 0.33 0.33 99 1065.9
20260502031812 2 37 0.0 1.6 0.30 0.20 0.20 99 1065.6
20260502030808 2 286 0.0 0.0 0.30 0.15 0.15 98 1065.8
20260502025803 2 67 3.2 3.2 0.30 0.10 0.10 98 1065.8
20260502024758 3 290 0.0 0.0 0.18 0.05 0.05 98 1065.8
20260502023754 3 290 0.0 0.0 0.13 0.03 0.03 97 1065.6
20260502022749 3 274 0.0 0.0 0.00 0.00 0.00 97 1065.8
20260502021748 3 69 1.6 1.6 0.00 0.00 0.00 97 1065.7
20260502020748 3 324 1.6 1.6 0.00 0.00 0.00 96 1065.8
20260502015743 3 47 0.0 0.0 0.00 0.00 0.00 96 1066.0
20260502014742 4 355 3.2 3.2 0.00 0.00 0.00 94 1065.9
20260502013741 4 145 3.2 3.2 0.00 0.00 0.00 94 1065.8
20260502012739 4 296 0.0 0.0 0.00 0.00 0.00 93 1065.9
20260502011734 4 296 0.0 0.0 0.00 0.00 0.00 92 1065.7
20260502010734 4 318 1.6 1.6 0.00 0.00 0.00 91 1065.5
20260502005733 4 355 1.6 3.2 0.00 0.00 0.00 92 1065.6
20260502004733 5 321 0.0 1.6 0.00 0.00 0.00 90 1065.7
20260502003733 5 299 0.0 0.0 0.00 0.00 0.00 88 1065.9
20260502002731 5 272 0.0 0.0 0.00 0.00 0.00 91 1065.9
20260502001726 5 279 0.0 0.0 0.00 0.00 0.00 86 1065.8
20260502000722 5 279 1.6 1.6 0.00 0.00 0.00 85 1065.6
20260501235721 5 293 0.0 0.0 0.00 0.00 0.00 81 1065.9
20260501234719 6 9 1.6 3.2 0.00 0.00 0.00 76 1065.9
20260501233719 6 339 3.2 3.2 0.00 0.00 0.00 73 1065.9
20260501232718 6 255 0.0 1.6 0.00 0.00 0.00 72 1065.7
20260501231713 6 254 0.0 0.0 0.00 0.00 0.00 70 1065.8
20260501230709 7 279 4.8 4.8 0.00 0.00 0.00 65 1065.6
20260501225704 7 311 1.6 1.6 0.00 0.00 0.00 63 1065.5
20260501224703 7 271 1.6 1.6 0.00 0.00 0.00 62 1065.5
20260501223703 7 33 1.6 4.8 0.00 0.00 0.00 61 1065.3
20260501222701 8 241 1.6 3.2 0.00 0.00 0.00 60 1065.1
20260501221701 8 201 3.2 3.2 0.00 0.00 0.00 59 1065.1
20260501220656 8 251 9.7 11.3 0.00 0.00 0.00 57 1065.3
20260501215656 8 285 8.0 8.0 0.00 0.00 0.00 55 1065.0
20260501214652 8 301 1.6 1.6 0.00 0.00 0.00 55 1064.6
20260501213651 8 296 1.6 1.6 0.00 0.00 0.00 54 1064.8
20260501212650 9 304 0.0 0.0 0.00 0.00 0.00 54 1064.7
20260501211649 8 317 1.6 3.2 0.00 0.00 0.00 53 1064.7
20260501210649 8 311 1.6 1.6 0.00 0.00 0.00 53 1064.7
20260501205648 8 247 4.8 8.0 0.00 0.00 0.00 52 1064.6
20260501204648 8 316 1.6 1.6 0.00 0.00 0.00 53 1064.6
20260501203646 9 331 4.8 4.8 0.00 0.00 0.00 53 1064.6
20260501202646 9 300 3.2 3.2 0.00 0.00 0.00 52 1064.4
20260501201646 10 333 3.2 3.2 0.00 0.00 0.00 52 1064.4
20260501200645 9 315 1.6 1.6 0.00 0.00 0.00 54 1064.5
20260501195640 8 276 3.2 3.2 0.00 0.00 0.00 53 1064.4
20260501194637 8 150 1.6 3.2 0.00 0.00 0.00 54 1064.9
20260501193636 9 255 3.2 3.2 0.00 0.00 0.00 53 1064.8
20260501192631 9 324 4.8 8.0 0.00 0.00 0.00 52 1064.6
20260501191631 9 268 6.4 8.0 0.00 0.00 0.00 52 1064.7
20260501190631 10 258 8.0 9.7 0.00 0.00 0.00 51 1064.8
20260501185628 10 274 9.7 12.9 0.00 0.00 0.00 51 1064.8
20260501184626 9 201 3.2 3.2 0.00 0.00 0.00 52 1064.8
20260501183624 9 276 3.2 4.8 0.00 0.00 0.00 51 1064.9
20260501182623 10 325 3.2 3.2 0.00 0.00 0.00 50 1064.6
20260501181623 8 322 4.8 4.8 0.00 0.00 0.00 52 1065.0
20260501180618 10 346 0.0 1.6 0.00 0.00 0.00 52 1065.2